MAS1039 WMKK-WMKJ

Flight info

Callsign MAS1039
Flight time 0h 36m
Altitude 25000
Route MITOS1D MITOS DCT TOPOR W534 EMTUV EMTUV1E
Aircraft B738/M-SDE2E3FGHIRWXY/LB1

Departure

Time 2026-05-05 12:18
Airport Kuala Lumpur International Airport (WMKK)

Arrival

Time 2026-05-05 12:54
Airport Senai International Airport (WMKJ)
Time Latitude Longitude Altitude Speed Heading
2026-05-05 12:03 2.75397 101.70843 72 ft 0 kts 326°
2026-05-05 12:12 2.75377 101.70856 72 ft 4 kts 331°
2026-05-05 12:12 2.75352 101.70868 63 ft 4 kts 342°
2026-05-05 12:12 2.75327 101.70872 69 ft 4 kts 13°
2026-05-05 12:12 2.75312 101.70865 62 ft 0 kts 56°
2026-05-05 12:14 2.75320 101.70877 71 ft 4 kts 57°
2026-05-05 12:15 2.75343 101.70913 63 ft 8 kts 57°
2026-05-05 12:15 2.75382 101.70974 66 ft 12 kts 57°
2026-05-05 12:15 2.75437 101.71052 69 ft 15 kts 53°
2026-05-05 12:15 2.75500 101.71149 68 ft 18 kts 57°
2026-05-05 12:16 2.75574 101.71260 72 ft 21 kts 57°
2026-05-05 12:16 2.75651 101.71374 71 ft 16 kts 59°
2026-05-05 12:16 2.75600 101.71465 69 ft 17 kts 143°
2026-05-05 12:16 2.75577 101.71569 70 ft 17 kts 57°
2026-05-05 12:17 2.75611 101.71623 65 ft 9 kts 61°
2026-05-05 12:17 2.75665 101.71651 70 ft 11 kts 329°
2026-05-05 12:17 2.75677 101.71644 69 ft 3 kts 326°
2026-05-05 12:17 2.75758 101.71590 69 ft 50 kts 326°
2026-05-05 12:18 2.76315 101.71216 68 ft 140 kts 326°
2026-05-05 12:18 2.77245 101.70581 462 ft 180 kts 327°
2026-05-05 12:18 2.78405 101.69869 1145 ft 204 kts 332°
2026-05-05 12:18 2.79641 101.69257 2378 ft 201 kts 335°
2026-05-05 12:19 2.81013 101.68663 2800 ft 224 kts 338°
2026-05-05 12:19 2.82562 101.68045 3006 ft 260 kts 339°
2026-05-05 12:19 2.84291 101.67391 3033 ft 269 kts 340°
2026-05-05 12:19 2.86063 101.66741 3451 ft 273 kts 341°
2026-05-05 12:20 2.87847 101.66094 4506 ft 271 kts 342°
2026-05-05 12:20 2.89691 101.65791 5438 ft 272 kts
2026-05-05 12:20 2.91458 101.66417 6345 ft 274 kts 35°
2026-05-05 12:20 2.92776 101.67794 7182 ft 277 kts 59°
2026-05-05 12:21 2.93632 101.69529 8035 ft 281 kts 66°
2026-05-05 12:21 2.94382 101.71238 8790 ft 286 kts 67°
2026-05-05 12:21 2.94821 101.73186 9586 ft 293 kts 91°
2026-05-05 12:21 2.94354 101.75163 10363 ft 298 kts 115°
2026-05-05 12:22 2.93108 101.76872 10646 ft 322 kts 134°
2026-05-05 12:22 2.91497 101.78429 10823 ft 346 kts 136°
2026-05-05 12:22 2.89677 101.80096 11084 ft 364 kts 137°
2026-05-05 12:22 2.87786 101.81816 11641 ft 370 kts 137°
2026-05-05 12:23 2.85886 101.83557 12359 ft 372 kts 137°
2026-05-05 12:23 2.83984 101.85315 13073 ft 373 kts 136°
2026-05-05 12:23 2.82072 101.87095 13706 ft 377 kts 136°
2026-05-05 12:23 2.80150 101.88894 14262 ft 380 kts 136°
2026-05-05 12:24 2.78218 101.90708 14834 ft 383 kts 136°
2026-05-05 12:24 2.76272 101.92537 15410 ft 385 kts 136°
2026-05-05 12:24 2.74308 101.94384 15983 ft 388 kts 136°
2026-05-05 12:24 2.72330 101.96244 16523 ft 391 kts 136°
2026-05-05 12:25 2.70344 101.98112 17053 ft 394 kts 135°
2026-05-05 12:25 2.68340 101.99997 17587 ft 397 kts 135°
2026-05-05 12:25 2.66320 102.01898 18094 ft 400 kts 135°
2026-05-05 12:25 2.64280 102.03817 18534 ft 403 kts 135°
2026-05-05 12:26 2.62228 102.05745 18986 ft 405 kts 136°
2026-05-05 12:26 2.60122 102.07629 19407 ft 409 kts 143°
2026-05-05 12:26 2.57555 102.08896 19804 ft 415 kts 162°
2026-05-05 12:26 2.54695 102.09334 20253 ft 420 kts 177°
2026-05-05 12:27 2.51768 102.09337 20678 ft 422 kts 179°
2026-05-05 12:27 2.48811 102.09334 21055 ft 425 kts 178°
2026-05-05 12:27 2.45849 102.09360 21433 ft 428 kts 178°
2026-05-05 12:27 2.42859 102.09408 21828 ft 430 kts 178°
2026-05-05 12:28 2.39858 102.09466 22218 ft 432 kts 178°
2026-05-05 12:28 2.36847 102.09528 22594 ft 435 kts 178°
2026-05-05 12:28 2.33820 102.09589 22952 ft 437 kts 178°
2026-05-05 12:28 2.30805 102.09650 23300 ft 439 kts 178°
2026-05-05 12:29 2.27698 102.09711 23596 ft 442 kts 178°
2026-05-05 12:29 2.24623 102.09771 23891 ft 443 kts 178°
2026-05-05 12:29 2.21545 102.09830 24339 ft 441 kts 177°
2026-05-05 12:29 2.18484 102.09888 24712 ft 440 kts 177°
2026-05-05 12:30 2.15408 102.09948 24831 ft 445 kts 177°
2026-05-05 12:30 2.12324 102.10010 24843 ft 451 kts 177°
2026-05-05 12:30 2.09135 102.10073 24852 ft 456 kts 177°
2026-05-05 12:30 2.05944 102.10134 24857 ft 460 kts 177°
2026-05-05 12:31 2.02779 102.10494 24834 ft 462 kts 162°
2026-05-05 12:31 1.99884 102.11818 24856 ft 461 kts 145°
2026-05-05 12:31 1.97497 102.13889 24859 ft 462 kts 130°
2026-05-05 12:31 1.96175 102.15615 24848 ft 464 kts 121°
2026-05-05 12:32 1.94849 102.18549 24857 ft 465 kts 108°
2026-05-05 12:32 1.93906 102.21651 24845 ft 466 kts 106°
2026-05-05 12:32 1.93008 102.24770 24837 ft 467 kts 106°
2026-05-05 12:32 1.92113 102.27903 24621 ft 470 kts 106°
2026-05-05 12:33 1.91208 102.31033 24056 ft 465 kts 106°
2026-05-05 12:33 1.90006 102.35114 22888 ft 463 kts 106°
2026-05-05 12:33 1.89089 102.38181 22086 ft 458 kts 106°
2026-05-05 12:33 1.88473 102.40230 21593 ft 454 kts 107°
2026-05-05 12:34 1.87568 102.43231 20912 ft 447 kts 107°
2026-05-05 12:34 1.86675 102.46185 20251 ft 441 kts 107°
2026-05-05 12:34 1.85807 102.49056 19615 ft 435 kts 107°
2026-05-05 12:34 1.84938 102.51932 18949 ft 430 kts 107°
2026-05-05 12:35 1.84078 102.54783 18295 ft 426 kts 106°
2026-05-05 12:35 1.83224 102.57612 17574 ft 422 kts 106°
2026-05-05 12:35 1.82384 102.60401 16901 ft 417 kts 106°
2026-05-05 12:35 1.81553 102.63157 16254 ft 412 kts 106°
2026-05-05 12:36 1.80729 102.65885 15627 ft 407 kts 107°
2026-05-05 12:36 1.79917 102.68578 15007 ft 403 kts 107°
2026-05-05 12:36 1.79115 102.71238 14387 ft 399 kts 107°
2026-05-05 12:36 1.78315 102.73889 13753 ft 396 kts 107°
2026-05-05 12:37 1.77522 102.76521 13079 ft 394 kts 107°
2026-05-05 12:37 1.76736 102.79125 12453 ft 390 kts 107°
2026-05-05 12:37 1.75958 102.81709 11837 ft 386 kts 107°
2026-05-05 12:37 1.75185 102.84270 11242 ft 383 kts 107°
2026-05-05 12:38 1.74424 102.86790 10954 ft 371 kts 107°
2026-05-05 12:38 1.73725 102.89220 10752 ft 358 kts 103°
2026-05-05 12:38 1.73370 102.91629 10690 ft 342 kts 95°
2026-05-05 12:38 1.73162 102.93950 10599 ft 329 kts 95°
2026-05-05 12:39 1.72973 102.96189 10476 ft 318 kts 95°
2026-05-05 12:39 1.72787 102.98357 10355 ft 308 kts 95°
2026-05-05 12:39 1.72611 103.00348 10237 ft 299 kts 95°
2026-05-05 12:39 1.72426 103.02385 10120 ft 291 kts 95°
2026-05-05 12:40 1.72243 103.04370 9980 ft 283 kts 95°
2026-05-05 12:40 1.72061 103.06327 9695 ft 282 kts 96°
2026-05-05 12:40 1.71879 103.08277 9394 ft 281 kts 96°
2026-05-05 12:40 1.71696 103.10217 9098 ft 280 kts 95°
2026-05-05 12:41 1.71516 103.12137 8805 ft 279 kts 95°
2026-05-05 12:41 1.71334 103.14065 8511 ft 278 kts 95°
2026-05-05 12:41 1.71154 103.15981 8225 ft 277 kts 95°
2026-05-05 12:41 1.70973 103.17899 7934 ft 276 kts 95°
2026-05-05 12:42 1.70794 103.19801 7648 ft 275 kts 95°
2026-05-05 12:42 1.70615 103.21703 7367 ft 274 kts 95°
2026-05-05 12:42 1.70437 103.23599 7077 ft 274 kts 95°
2026-05-05 12:42 1.70258 103.25486 6792 ft 273 kts 95°
2026-05-05 12:43 1.70079 103.27376 6507 ft 273 kts 95°
2026-05-05 12:43 1.69899 103.29260 6219 ft 272 kts 95°
2026-05-05 12:43 1.69979 103.31129 6017 ft 266 kts 75°
2026-05-05 12:43 1.70529 103.32872 5943 ft 262 kts 72°
2026-05-05 12:44 1.71092 103.34604 5849 ft 262 kts 72°
2026-05-05 12:44 1.71644 103.36311 5783 ft 262 kts 72°
2026-05-05 12:44 1.72211 103.38076 5705 ft 264 kts 72°
2026-05-05 12:44 1.72774 103.39833 5414 ft 274 kts 72°
2026-05-05 12:45 1.73353 103.41647 5120 ft 273 kts 72°
2026-05-05 12:45 1.73927 103.43453 4830 ft 272 kts 72°
2026-05-05 12:45 1.74496 103.45247 4544 ft 270 kts 72°
2026-05-05 12:45 1.75060 103.47028 4272 ft 268 kts 72°
2026-05-05 12:46 1.75618 103.48793 4017 ft 265 kts 72°
2026-05-05 12:46 1.76220 103.50527 3769 ft 262 kts 63°
2026-05-05 12:46 1.77417 103.51849 3615 ft 256 kts 33°
2026-05-05 12:46 1.79001 103.52553 3606 ft 244 kts 18°
2026-05-05 12:47 1.80585 103.53025 3573 ft 232 kts 17°
2026-05-05 12:47 1.82107 103.53461 3504 ft 223 kts 17°
2026-05-05 12:47 1.83568 103.53882 3415 ft 213 kts 18°
2026-05-05 12:47 1.84800 103.54579 3315 ft 199 kts 51°
2026-05-05 12:48 1.85449 103.55734 3222 ft 185 kts 73°
2026-05-05 12:48 1.85616 103.56963 3089 ft 175 kts 94°
2026-05-05 12:48 1.85309 103.58096 2934 ft 165 kts 117°
2026-05-05 12:48 1.84668 103.59015 2732 ft 159 kts 133°
2026-05-05 12:49 1.83844 103.59662 2663 ft 148 kts 154°
2026-05-05 12:49 1.82879 103.60024 2707 ft 147 kts 158°
2026-05-05 12:49 1.81940 103.60380 2751 ft 147 kts 159°
2026-05-05 12:49 1.80963 103.60745 2791 ft 147 kts 159°
2026-05-05 12:50 1.80003 103.61106 2820 ft 148 kts 158°
2026-05-05 12:50 1.79041 103.61466 2879 ft 147 kts 159°
2026-05-05 12:50 1.78066 103.61827 2699 ft 152 kts 159°
2026-05-05 12:50 1.77081 103.62189 2422 ft 150 kts 159°
2026-05-05 12:51 1.76122 103.62528 2223 ft 143 kts 160°
2026-05-05 12:51 1.75185 103.62867 2038 ft 143 kts 158°
2026-05-05 12:51 1.74249 103.63210 1848 ft 145 kts 160°
2026-05-05 12:51 1.73314 103.63548 1667 ft 143 kts 159°
2026-05-05 12:52 1.72374 103.63891 1479 ft 144 kts 159°
2026-05-05 12:52 1.71438 103.64234 1288 ft 143 kts 160°
2026-05-05 12:52 1.70506 103.64575 1106 ft 143 kts 159°
2026-05-05 12:52 1.69571 103.64918 938 ft 143 kts 159°
2026-05-05 12:53 1.68627 103.65263 778 ft 145 kts 160°
2026-05-05 12:53 1.67709 103.65600 614 ft 148 kts 160°
2026-05-05 12:53 1.66750 103.65950 413 ft 148 kts 160°
2026-05-05 12:53 1.65809 103.66295 241 ft 147 kts 160°
2026-05-05 12:54 1.64503 103.66784 205 ft 66 kts 159°
2026-05-05 12:54 1.64278 103.66794 199 ft 18 kts 251°
2026-05-05 12:54 1.64205 103.66714 204 ft 15 kts 177°
2026-05-05 12:55 1.64110 103.66740 200 ft 14 kts 160°
2026-05-05 12:55 1.64022 103.66772 203 ft 13 kts 159°
2026-05-05 12:55 1.63937 103.66805 206 ft 13 kts 159°
2026-05-05 12:55 1.63855 103.66836 204 ft 13 kts 159°
2026-05-05 12:56 1.63773 103.66867 209 ft 13 kts 163°
2026-05-05 12:56 1.63686 103.66859 208 ft 14 kts 228°
2026-05-05 12:56 1.63637 103.66810 199 ft 8 kts 219°
2026-05-05 12:56 1.63618 103.66766 206 ft 1 kts 251°
2026-05-05 12:57 1.63614 103.66756 208 ft 2 kts 250°
2026-05-05 12:57 1.63612 103.66749 205 ft 0 kts 249°
2026-05-05 12:57 1.63611 103.66746 203 ft 1 kts 250°
2026-05-05 12:57 1.63609 103.66741 199 ft 0 kts 250°
2026-05-05 12:58 1.63609 103.66740 199 ft 0 kts 250°
2026-05-05 12:58 1.63608 103.66740 199 ft 0 kts 250°